Home > Weather > Pécs > Past weeks

Flag for Hungary Past Weather in Pécs, Hungary — Yesterday and Last 2 Weeks

Now
71 °F

Mild.


Feels Like: 68 °F
Forecast: 71 / 87 °F
Wind: 5 mph from North

Location: Pecs / Pogany

Current Time: Jul 25, 2016 at 12:33:28 AM

Latest Report: Jul 24, 2016 at 11:00 PM


Visibility: N/A

Pressure: 30.01 "Hg

Humidity: 89%

Dew Point: 67 °F

Location of PécsLocation

Past Weather in Pécs — Graph

°F

Pécs Temperature Yesterday

Maximum temperature yesterday: 87 °F (at 1:00 PM)
Minimum temperature yesterday: 71 °F (at 11:00 PM)
Average temperature yesterday: 78 °F

High & Low Weather Summary for the Past Weeks

 TemperatureHumidityPressure
High91 °F (Jul 12, 6:00 PM)99% (Jul 14, 5:00 AM)30.14 "Hg (Jul 14, 5:00 AM)
Low56 °F (Jul 16, 9:00 AM)33% (Jul 12, 1:00 PM)29.68 "Hg (Jul 14, 5:00 AM)
Average72 °F67%29.98 "Hg
* Reported Jul 9 11:00 PM — Jul 24 11:00 PM, Pécs, Weather by CustomWeather, © 2016

Note: Actual official high and low records may vary slightly from our data, if they occured in-between our weather recording intervals... More about our weather records

Advertising

Pécs Weather History for the Previous 24 Hours

Scroll right to see more
 ConditionsComfort  
Time TempWeatherWind HumidityBarometerVisibility
11:00 PM
Sun, Jul 24
71 °FMild.5 mph89%30.01 "HgN/A
10:00 PM72 °FMild.3 mph86%30.05 "HgN/A
9:00 PM76 °FMild.5 mph82%30.01 "HgN/A
8:00 PM80 °FWarm.1 mph78%29.99 "HgN/A
7:00 PM81 °FOvercast.2 mph72%29.97 "Hg19 mi
6:00 PM84 °FOvercast.1 mph62%29.96 "Hg19 mi
5:00 PM82 °FOvercast.3 mph74%29.97 "Hg19 mi
4:00 PM74 °FThundershowers. Overcast.2 mph80%30.01 "Hg9 mi
3:00 PM79 °FThundershowers. Partly sunny.8 mph58%29.99 "Hg25 mi
2:00 PM87 °FPartly sunny.2 mph49%29.98 "Hg25 mi
1:00 PM87 °FScattered clouds.2 mph54%29.98 "Hg25 mi
12:00 PM87 °FScattered clouds.2 mph61%29.98 "Hg25 mi
11:00 AM85 °FPassing clouds.2 mph59%29.99 "Hg25 mi
10:00 AM83 °FPassing clouds.2 mph70%29.99 "Hg22 mi
9:00 AM80 °FSunny.2 mph72%29.99 "Hg22 mi
8:00 AM77 °FSunny.2 mph78%29.98 "Hg22 mi
7:00 AM74 °FMild.1 mph81%29.98 "HgN/A
6:00 AM72 °FMild.1 mph86%29.98 "HgN/A
5:00 AM72 °FMild.No wind87%29.99 "HgN/A
4:00 AM71 °FMild.1 mph86%29.99 "HgN/A
3:00 AM73 °FMild.No wind82%29.99 "HgN/A
2:00 AM73 °FMild.1 mph81%29.99 "HgN/A
1:00 AM75 °FMild.No wind76%29.99 "HgN/A
12:00 AM75 °FMild.No wind78%29.99 "HgN/A
Weather by CustomWeather, © 2016

See weather overviewHow to use our weather pages